Location: Avon School (historical)
(37.7514°N, 90.2201°W)
Time: 11:11:59
(UTC+00:00)

Vanguard 2 - All Passes

Search period start: 07 November 2024 00:00
Search period end: 17 November 2024 00:00
Orbit: 551 x 2910 km, 32.9° (Epoch: 06 November)

Date Brightness Start Highest point End Pass type
(mag) Time Alt. Az. Time Alt. Az. Time Alt. Az.
07 Nov - 14:50:05 10° SSW 14:56:57 34° SE 15:07:26 10° E daylight
07 Nov - 16:56:08 10° WSW 17:05:44 66° SSE 17:21:08 10° E daylight
07 Nov - 19:04:16 10° W 19:16:44 71° S 19:34:13 10° ESE daylight
07 Nov - 21:13:54 10° W 21:28:25 52° SSW 21:45:05 10° SE daylight
07 Nov - 23:26:37 10° W 23:39:06 25° SW 23:51:21 10° S visible
08 Nov - 15:03:09 10° SW 15:10:14 41° SSE 15:21:31 10° E daylight
08 Nov - 17:09:43 10° WSW 17:19:24 69° S 17:35:00 10° E daylight
08 Nov - 19:17:59 10° W 19:30:29 67° SSW 19:47:52 10° ESE daylight
08 Nov - 21:27:50 10° W 21:41:59 45° SSW 21:58:04 10° SE daylight
08 Nov - 23:41:57 10° W 23:52:22 19° SW 00:02:40 10° S visible
09 Nov - 13:13:04 10° SSE 13:16:31 14° SE 13:20:44 10° ESE daylight
09 Nov - 15:16:23 10° SW 15:23:38 48° SSE 15:35:29 10° E daylight
09 Nov - 17:23:20 10° WSW 17:33:08 71° S 17:48:50 10° E daylight
09 Nov - 19:31:44 10° W 19:44:12 63° SSW 20:01:24 10° ESE daylight
09 Nov - 21:41:55 10° W 21:55:28 38° SSW 22:10:47 10° SSE daylight
09 Nov - 23:58:36 10° WSW 00:05:38 14° SW 00:12:39 10° SSW visible
10 Nov - 13:25:06 10° S 13:29:36 20° SE 13:35:42 10° E daylight
10 Nov - 15:29:45 10° SW 15:37:06 55° SSE 15:49:22 10° E daylight
10 Nov - 17:36:59 10° W 17:46:51 71° S 18:02:38 10° ESE daylight
10 Nov - 19:45:30 10° W 19:57:53 57° SSW 20:14:45 10° SE daylight
10 Nov - 21:56:12 10° W 22:08:55 31° SW 22:23:10 10° SSE daylight
11 Nov - 13:37:45 10° SSW 13:42:47 26° SE 13:50:05 10° E daylight
11 Nov - 15:43:14 10° WSW 15:50:40 61° SSE 16:03:14 10° E daylight
11 Nov - 17:50:39 10° W 18:00:35 69° S 18:16:22 10° ESE daylight
11 Nov - 19:59:19 10° W 20:11:32 50° SSW 20:27:56 10° SE daylight
11 Nov - 22:10:50 10° W 22:22:21 25° SW 22:35:05 10° S daylight
12 Nov - 13:50:43 10° SSW 13:56:03 33° SSE 14:04:12 10° E daylight
12 Nov - 15:56:46 10° WSW 16:04:18 65° S 16:17:04 10° E daylight
12 Nov - 18:04:19 10° W 18:14:18 65° S 18:30:00 10° ESE daylight
12 Nov - 20:13:13 10° W 20:25:08 43° SSW 20:40:53 10° SE daylight
12 Nov - 22:26:04 10° WSW 22:35:46 19° SW 22:46:20 10° S daylight
13 Nov - 14:03:54 10° SW 14:09:25 41° SSE 14:18:09 10° E daylight
13 Nov - 16:10:21 10° WSW 16:17:57 67° S 16:30:53 10° E daylight
13 Nov - 18:18:02 10° W 18:28:00 59° SSW 18:43:31 10° ESE daylight
13 Nov - 20:27:15 10° W 20:38:44 36° SSW 20:53:33 10° SSE daylight
13 Nov - 22:42:37 10° WSW 22:49:13 14° SW 22:56:12 10° SSW daylight
14 Nov - 12:13:22 10° SSE 12:15:54 14° SE 12:18:52 10° ESE visible
14 Nov - 14:17:13 10° SW 14:22:51 48° SSE 14:32:02 10° E daylight
14 Nov - 16:23:57 10° W 16:31:38 67° S 16:44:39 10° ESE daylight
14 Nov - 18:31:45 10° W 18:41:41 53° SSW 18:56:52 10° SE daylight
14 Nov - 20:41:32 10° W 20:52:18 30° SSW 21:05:51 10° SSE daylight
15 Nov - 12:25:37 10° S 12:29:06 19° SE 12:33:36 10° E daylight
15 Nov - 14:30:39 10° WSW 14:36:23 54° SSE 14:45:52 10° E daylight
15 Nov - 16:37:36 10° W 16:45:19 64° S 16:58:21 10° ESE daylight
15 Nov - 18:45:33 10° W 18:55:20 46° SSW 19:10:01 10° SE daylight
15 Nov - 20:56:10 10° W 21:05:51 23° SW 21:17:40 10° S daylight
16 Nov - 12:38:25 10° SSW 12:42:23 25° SSE 12:47:48 10° E daylight
16 Nov - 14:44:10 10° WSW 14:49:58 59° S 14:59:39 10° E daylight
16 Nov - 16:51:15 10° W 16:58:59 60° S 17:11:57 10° ESE daylight
16 Nov - 18:59:26 10° W 19:09:00 39° SSW 19:22:56 10° SE daylight
16 Nov - 21:11:28 10° WSW 21:19:25 17° SW 21:28:42 10° S daylight
